Terminal Aerodrome Forecast
Issued by NWS Mt. Holly, NJ

Home | Current Version | Previous Version | Text Only | Print | Product List | Glossary On
Versions: 1 2 3 4 5 6 7 8 9 10 11 12 13 14 15 16 17 18 19 20 21 22 23 24
369
FTUS41 KPHI 271736
TAFACY
TAF
KACY 271736Z 2718/2818 23010KT P6SM BKN025
     FM280300 VRB05KT 5SM BR OVC007
     FM280600 VRB04KT 1SM BR OVC003
     FM281200 VRB05KT 1SM -SHRA BR OVC007
     FM281600 VRB05KT 5SM BR OVC010=

USA.gov is the U.S. government's official web portal to all federal, state and local government web resources and services.